When you browse on this site, cookies collect data to enhance your experience and personalize the content and advertising you see.
Visit our Privacy Policy to learn more. By continuing to use the site, you agree to this use of cookies and data.
  • En España
  • Lista de países
  • Para 7 días
  • Temperatura del agua
  • Mapa Satelital
  • El tiempo en el mapa
  • Informadores
  • user-avatar
    Iniciar sesión

    Tiempo cada hora Pozhega

    Hoy, 18 Junio, Martes

    Tiempo Temperatura Precipitaciones Viento Presión Humedad
    00:00 +19°C° 0.1 mm 1 mps 744 mmHg 94%
    01:00 +17°C° 0.1 mm 0 mps 744 mmHg 94%
    02:00 +17°C° 0.2 mm 0 mps 744 mmHg 94%
    03:00 +17°C° 0.2 mm 0 mps 744 mmHg 94%
    04:00 +16°C° 0.2 mm 0 mps 744 mmHg 95%
    05:00 +17°C° 0.1 mm 0 mps 744 mmHg 93%
    06:00 +19°C° 0.1 mm 0 mps 745 mmHg 91%
    07:00 +20°C° 0.1 mm 0 mps 745 mmHg 90%
    08:00 +22°C° 0 mm 0 mps 745 mmHg 81%
    09:00 +25°C° 0 mm 1 mps 745 mmHg 73%
    10:00 +27°C° 0 mm 1 mps 745 mmHg 65%
    11:00 +27°C° 0.4 mm 1 mps 745 mmHg 66%
    12:00 +28°C° 0.4 mm 1 mps 745 mmHg 67%
    13:00 +28°C° 0.4 mm 1 mps 744 mmHg 69%
    14:00 +28°C° 0.3 mm 1 mps 744 mmHg 69%
    15:00 +28°C° 0.3 mm 1 mps 744 mmHg 69%
    16:00 +28°C° 0.3 mm 1 mps 743 mmHg 70%
    17:00 +26°C° 0.1 mm 1 mps 743 mmHg 75%
    18:00 +25°C° 0.1 mm 1 mps 743 mmHg 81%
    19:00 +22°C° 0.1 mm 0 mps 743 mmHg 86%
    20:00 +21°C° 0.2 mm 0 mps 743 mmHg 88%
    21:00 +20°C° 0.2 mm 0 mps 743 mmHg 90%
    22:00 +19°C° 0.2 mm 0 mps 743 mmHg 92%
    23:00 +19°C° 0.1 mm 0 mps 743 mmHg 92%

    Mañana, 19 Junio, Miércoles

    Tiempo Temperatura Precipitaciones Viento Presión Humedad
    00:00 +19°C° 0.1 mm 0 mps 743 mmHg 92%
    01:00 +18°C° 0.1 mm 0 mps 743 mmHg 93%
    02:00 +18°C° 0 mm 0 mps 742 mmHg 93%
    03:00 +18°C° 0 mm 0 mps 742 mmHg 93%
    04:00 +17°C° 0 mm 0 mps 742 mmHg 93%
    05:00 +19°C° 0 mm 0 mps 742 mmHg 91%
    06:00 +20°C° 0 mm 0 mps 742 mmHg 89%
    07:00 +21°C° 0 mm 0 mps 743 mmHg 87%
    08:00 +23°C° 0 mm 0 mps 743 mmHg 79%
    09:00 +27°C° 0 mm 1 mps 743 mmHg 71%
    10:00 +29°C° 0 mm 1 mps 743 mmHg 63%
    11:00 +29°C° 0.1 mm 1 mps 742 mmHg 61%
    12:00 +30°C° 0.1 mm 1 mps 742 mmHg 60%
    13:00 +30°C° 0.1 mm 1 mps 742 mmHg 58%
    14:00 +30°C° 0.1 mm 1 mps 741 mmHg 58%
    15:00 +30°C° 0.1 mm 1 mps 741 mmHg 58%
    16:00 +28°C° 0.1 mm 0 mps 741 mmHg 58%
    17:00 +28°C° 0.1 mm 1 mps 741 mmHg 66%
    18:00 +27°C° 0.1 mm 1 mps 741 mmHg 74%
    19:00 +25°C° 0.1 mm 1 mps 741 mmHg 82%
    20:00 +24°C° 0.3 mm 1 mps 741 mmHg 84%
    21:00 +23°C° 0.3 mm 1 mps 741 mmHg 86%
    22:00 +20°C° 0.3 mm 0 mps 741 mmHg 88%
    23:00 +20°C° 0 mm 0 mps 741 mmHg 88%

    Pasado mañana, 20 Junio, Jueves

    Tiempo Temperatura Precipitaciones Viento Presión Humedad
    00:00 +19°C° 0 mm 0 mps 741 mmHg 88%
    01:00 +19°C° 0 mm 0 mps 741 mmHg 88%
    02:00 +19°C° 0 mm 0 mps 741 mmHg 89%
    03:00 +18°C° 0 mm 0 mps 741 mmHg 89%
    04:00 +18°C° 0 mm 0 mps 741 mmHg 90%
    05:00 +19°C° 0 mm 0 mps 741 mmHg 88%
    06:00 +21°C° 0 mm 0 mps 741 mmHg 85%
    07:00 +22°C° 0 mm 0 mps 741 mmHg 83%
    08:00 +24°C° 0.5 mm 0 mps 741 mmHg 79%
    09:00 +27°C° 0.5 mm 1 mps 742 mmHg 76%
    10:00 +28°C° 0.5 mm 1 mps 742 mmHg 72%
    11:00 +29°C° 0.4 mm 1 mps 741 mmHg 65%
    12:00 +30°C° 0.4 mm 1 mps 741 mmHg 58%
    13:00 +32°C° 0.4 mm 1 mps 741 mmHg 51%
    14:00 +31°C° 0.1 mm 1 mps 741 mmHg 51%
    15:00 +31°C° 0.1 mm 1 mps 741 mmHg 51%
    16:00 +29°C° 0.1 mm 0 mps 740 mmHg 50%
    17:00 +29°C° 0.1 mm 1 mps 740 mmHg 60%
    18:00 +27°C° 0.1 mm 1 mps 740 mmHg 70%
    19:00 +25°C° 0.1 mm 1 mps 741 mmHg 80%
    20:00 +24°C° 0.2 mm 1 mps 741 mmHg 83%
    21:00 +23°C° 0.2 mm 1 mps 741 mmHg 86%
    22:00 +22°C° 0.2 mm 1 mps 741 mmHg 89%
    23:00 +22°C° 0 mm 1 mps 741 mmHg 89%

    21 Junio, Viernes

    Tiempo Temperatura Precipitaciones Viento Presión Humedad
    00:00 +22°C° 0 mm 1 mps 741 mmHg 89%
    01:00 +21°C° 0 mm 1 mps 741 mmHg 89%
    02:00 +21°C° 0 mm 1 mps 741 mmHg 88%
    03:00 +20°C° 0 mm 1 mps 741 mmHg 87%
    04:00 +19°C° 0 mm 1 mps 741 mmHg 86%
    05:00 +21°C° 0 mm 1 mps 742 mmHg 83%
    06:00 +22°C° 0 mm 1 mps 742 mmHg 79%
    07:00 +24°C° 0 mm 1 mps 743 mmHg 76%
    08:00 +26°C° 0 mm 1 mps 743 mmHg 67%
    09:00 +27°C° 0 mm 1 mps 743 mmHg 58%
    10:00 +29°C° 0 mm 1 mps 743 mmHg 49%
    11:00 +30°C° 0 mm 1 mps 743 mmHg 47%
    12:00 +31°C° 0 mm 1 mps 743 mmHg 46%
    13:00 +31°C° 0 mm 1 mps 743 mmHg 44%
    14:00 +31°C° 0 mm 1 mps 742 mmHg 46%
    15:00 +31°C° 0 mm 1 mps 742 mmHg 49%
    16:00 +31°C° 0 mm 1 mps 742 mmHg 51%
    17:00 +29°C° 0.1 mm 1 mps 742 mmHg 63%
    18:00 +27°C° 0.1 mm 1 mps 742 mmHg 74%
    19:00 +25°C° 0.1 mm 1 mps 742 mmHg 85%
    20:00 +24°C° 0.1 mm 1 mps 743 mmHg 86%
    21:00 +23°C° 0.1 mm 1 mps 743 mmHg 88%
    22:00 +22°C° 0.1 mm 1 mps 744 mmHg 89%
    23:00 +20°C° 0.1 mm 0 mps 744 mmHg 90%

    22 Junio, Sábado

    Tiempo Temperatura Precipitaciones Viento Presión Humedad
    00:00 +20°C° 0.1 mm 0 mps 744 mmHg 91%
    01:00 +19°C° 0.1 mm 0 mps 744 mmHg 91%
    02:00 +19°C° 0 mm 0 mps 744 mmHg 92%
    03:00 +18°C° 0 mm 0 mps 744 mmHg 93%
    04:00 +18°C° 0 mm 0 mps 744 mmHg 94%
    05:00 +19°C° 0.2 mm 0 mps 744 mmHg 93%
    06:00 +20°C° 0.2 mm 0 mps 744 mmHg 91%
    07:00 +22°C° 0.2 mm 0 mps 745 mmHg 90%
    08:00 +25°C° 0.4 mm 1 mps 745 mmHg 83%
    09:00 +27°C° 0.4 mm 1 mps 745 mmHg 76%
    10:00 +28°C° 0.4 mm 1 mps 745 mmHg 70%
    11:00 +28°C° 0.3 mm 1 mps 745 mmHg 69%
    12:00 +29°C° 0.3 mm 1 mps 744 mmHg 69%
    13:00 +29°C° 0.3 mm 1 mps 744 mmHg 69%
    14:00 +30°C° 0.2 mm 1 mps 744 mmHg 67%
    15:00 +30°C° 0.2 mm 1 mps 744 mmHg 65%
    16:00 +30°C° 0.2 mm 1 mps 743 mmHg 63%
    17:00 +29°C° 0.3 mm 1 mps 743 mmHg 71%
    18:00 +27°C° 0.3 mm 1 mps 743 mmHg 78%
    19:00 +26°C° 0.3 mm 1 mps 743 mmHg 85%
    20:00 +25°C° 1.3 mm 1 mps 744 mmHg 87%
    21:00 +24°C° 1.3 mm 1 mps 744 mmHg 90%
    22:00 +22°C° 1.3 mm 1 mps 744 mmHg 92%
    23:00 +20°C° 0.1 mm 0 mps 744 mmHg 92%

    23 Junio, Domingo

    Tiempo Temperatura Precipitaciones Viento Presión Humedad
    00:00 +20°C° 0.1 mm 0 mps 744 mmHg 93%
    01:00 +19°C° 0.1 mm 0 mps 744 mmHg 93%
    02:00 +19°C° 0.1 mm 0 mps 744 mmHg 93%
    03:00 +19°C° 0.1 mm 0 mps 744 mmHg 94%
    04:00 +19°C° 0.1 mm 0 mps 744 mmHg 94%
    05:00 +20°C° 0 mm 0 mps 744 mmHg 93%
    06:00 +21°C° 0 mm 0 mps 745 mmHg 91%
    07:00 +22°C° 0 mm 0 mps 745 mmHg 90%
    08:00 +24°C° 0.2 mm 0 mps 745 mmHg 85%
    09:00 +25°C° 0.2 mm 0 mps 745 mmHg 79%
    10:00 +27°C° 0.2 mm 0 mps 745 mmHg 74%
    11:00 +28°C° 0.6 mm 0 mps 745 mmHg 69%
    12:00 +29°C° 0.6 mm 0 mps 745 mmHg 63%
    13:00 +30°C° 0.6 mm 0 mps 745 mmHg 58%
    14:00 +29°C° 0.2 mm 0 mps 745 mmHg 57%
    15:00 +29°C° 0.2 mm 0 mps 745 mmHg 57%
    16:00 +29°C° 0.2 mm 0 mps 744 mmHg 56%
    17:00 +27°C° 0 mm 0 mps 745 mmHg 64%
    18:00 +26°C° 0 mm 0 mps 745 mmHg 73%
    19:00 +24°C° 0 mm 0 mps 745 mmHg 81%
    20:00 +23°C° 0 mm 0 mps 745 mmHg 83%
    21:00 +22°C° 0 mm 0 mps 745 mmHg 84%
    22:00 +21°C° 0 mm 0 mps 746 mmHg 86%
    23:00 +21°C° 0 mm 0 mps 746 mmHg 87%
    Mostrar más